星链-2255 (STARLINK-2255 )

导读

STARLINK-2255是美国SpaceX星链星座中的卫星,于北京时间2021年5月15日8时发射升空。星链项目旨在构建全球卫星互联网星座,该卫星承担为地面用户提供低延迟、高带宽的宽带互联网服务任务,运行在近地轨道,属于星链组网的批量发射卫星之一,推动了星链星座全球覆盖进程。

Basic Information
目录编号:
48597
目录名称:
STARLINK-2255
国际标识:
2021-041AW
轨道中心:
EARTH
卫星名称:
星链-2255
卫星全名:
星链-2255 (STARLINK-2255 )
卫星状态:
在轨 (已飞行1938 天)
发射日期:
2021-05-15 UTC
国别 :
美国 (US)
星等 :
--
Orbit Information
数据来源 国际轨道数据
星历时间: 2026-09-04T03:33:49+0800
11小时前
查看轨道信息
半长轴: 6848.837km
偏心率: 0.0000883
轨道倾角: 53.160°
近地点辐角 82.581°
升交点赤经 30.582°
平近点角 277.530°
近地点: 470.095km
远地点: 471.305km
周期: 94.012分钟
每日圈数: 15.317136
Detailed Information
固有亮度:
5
最大亮度:
2.5
卫星平台:
Starlink V1.0
覆盖范围:
全球
运营商:
太空探索技术公司
运营商所在国:
美国
制造商(研发单位):
太空探索技术公司
制造商所在国:
美国
使用方式:
暂无
Satellite Introduction
星链(Starlink)计划是由太空探索技术公司(SpaceX)提出的一个巨型低轨卫星互联网星座项目,计划在2019年至2024年间在太空搭建由约1.2万颗卫星组成的“星链”网络,其中1584颗将部署在地球上空550千米处的近地轨道,并从2020年开始工作。该卫星仍在工作。
2D Orbit Map
3D Orbit Map
Orbit Altitude Analysis Chart
Orbit Inclination Analysis Chart
Orbit Comprehensive Analysis Chart
View Comprehensive Chart
Conjunction Data List
Event ID Objects TCA Miss Dist (km) Collision Risk Probability Collision Risk Index (CRI) Action
CDM_260903-181804-859705-850222
OBJECT A (58502)
2026-09-03T
18:18:59+0000
1.869 km
极远距离
3.210315E-6 低风险 0.45
CDM_260905-054904-859706-789121
2026-09-05T
05:49:35+0000
2.768 km
极远距离
1.469014E-6 低风险 0.38
CDM_260904-214804-859706-753521
2026-09-04T
21:48:53+0000
2.751 km
极远距离
1.354749E-6 低风险 0.38
CDM_260904-061504-859705-802021
NESS (58020)
2026-09-04T
06:15:48+0000
2.994 km
极远距离
9.749276E-7 极低风险 0.35